| time (UTC) | temp F | wind direction | speed knots | gust knots | rain 1hr in | rain 24hr in | rain mn in | humidity % | barometer mb |
| 20260509024004 | 63 | 46 | 2.6 | 8.7 | 0.00 | 0.00 | 0.00 | 54 | 1027.9 |
| 20260509023004 | 62 | 11 | 2.6 | 8.7 | 0.00 | 0.00 | 0.00 | 55 | 1027.9 |
| 20260509022004 | 62 | 51 | 3.5 | 13.0 | 0.00 | 0.00 | 0.00 | 55 | 1027.9 |
| 20260509021004 | 61 | 45 | 3.5 | 9.6 | 0.00 | 0.00 | 0.00 | 57 | 1028.1 |
| 20260509020004 | 60 | 49 | 3.5 | 10.4 | 0.00 | 0.00 | 0.00 | 58 | 1028.2 |
| 20260509015004 | 60 | 54 | 2.6 | 9.6 | 0.00 | 0.00 | 0.00 | 59 | 1028.3 |
| 20260509014004 | 59 | 63 | 4.3 | 16.5 | 0.00 | 0.00 | 0.00 | 60 | 1028.4 |
| 20260509013025 | 59 | 44 | 3.5 | 12.2 | 0.00 | 0.00 | 0.00 | 60 | 1028.5 |
| 20260509012004 | 58 | 66 | 2.6 | 13.0 | 0.00 | 0.00 | 0.00 | 62 | 1028.5 |
| 20260509011004 | 57 | 71 | 2.6 | 9.6 | 0.00 | 0.00 | 0.00 | 63 | 1028.6 |
| 20260509010005 | 56 | 53 | 1.7 | 5.2 | 0.00 | 0.00 | 0.00 | 65 | 1028.7 |
| 20260509005003 | 55 | 68 | 2.6 | 7.8 | 0.00 | 0.00 | 0.00 | 66 | 1028.7 |
| 20260509004003 | 54 | 110 | 1.7 | 7.8 | 0.00 | 0.00 | 0.00 | 68 | 1028.6 |
| 20260509002025 | 53 | 72 | 1.7 | 7.8 | 0.00 | 0.00 | 0.00 | 70 | 1028.6 |
| 20260509001025 | 52 | 120 | 1.7 | 4.3 | 0.00 | 0.00 | 0.00 | 70 | 1028.6 |
| 20260509000025 | 52 | 167 | 0.9 | 7.8 | 0.00 | 0.00 | 0.00 | 70 | 1028.5 |
| 20260508235004 | 52 | 192 | 0.9 | 4.3 | 0.00 | 0.00 | 0.00 | 69 | 1028.4 |
| 20260508234004 | 52 | 92 | 0.9 | 6.1 | 0.00 | 0.00 | 0.00 | 69 | 1028.4 |
| 20260508233004 | 52 | 81 | 0.9 | 5.2 | 0.00 | 0.00 | 0.00 | 69 | 1028.3 |
| 20260508232004 | 52 | 284 | 0.0 | 1.7 | 0.00 | 0.00 | 0.00 | 68 | 1028.4 |
| 20260508231004 | 52 | 287 | 0.0 | 1.7 | 0.00 | 0.00 | 0.00 | 68 | 1028.4 |
| 20260508230004 | 52 | 91 | 0.9 | 2.6 | 0.00 | 0.00 | 0.00 | 68 | 1028.2 |
| 20260508225025 | 53 | 100 | 0.9 | 3.5 | 0.00 | 0.00 | 0.00 | 67 | 1028.2 |
| 20260508224004 | 53 | 115 | 0.9 | 3.5 | 0.00 | 0.00 | 0.00 | 67 | 1028.1 |
| 20260508223003 | 53 | 118 | 0.9 | 5.2 | 0.00 | 0.00 | 0.00 | 66 | 1028.0 |
| 20260508222004 | 54 | 181 | 0.9 | 3.5 | 0.00 | 0.00 | 0.00 | 66 | 1027.9 |
| 20260508221004 | 54 | 132 | 1.7 | 7.8 | 0.00 | 0.00 | 0.00 | 65 | 1027.7 |
| 20260508220003 | 54 | 52 | 1.7 | 6.1 | 0.00 | 0.00 | 0.00 | 65 | 1027.5 |
| 20260508215003 | 54 | 4 | 0.9 | 7.0 | 0.00 | 0.00 | 0.00 | 64 | 1027.3 |
| 20260508214003 | 55 | 65 | 1.7 | 7.8 | 0.00 | 0.00 | 0.00 | 64 | 1027.3 |
| 20260508213003 | 55 | 88 | 2.6 | 7.8 | 0.00 | 0.00 | 0.00 | 63 | 1027.2 |
| 20260508212003 | 55 | 64 | 1.7 | 8.7 | 0.00 | 0.00 | 0.00 | 64 | 1027.1 |
| 20260508211003 | 54 | 40 | 1.7 | 7.8 | 0.00 | 0.00 | 0.00 | 65 | 1027.0 |
| 20260508210003 | 54 | 53 | 0.9 | 3.5 | 0.00 | 0.00 | 0.00 | 65 | 1027.0 |
| 20260508205003 | 54 | 52 | 0.9 | 4.3 | 0.00 | 0.00 | 0.00 | 65 | 1027.0 |
| 20260508204003 | 54 | 48 | 1.7 | 7.0 | 0.00 | 0.00 | 0.00 | 66 | 1026.9 |
| 20260508203024 | 53 | 277 | 0.9 | 2.6 | 0.00 | 0.00 | 0.00 | 66 | 1026.9 |
| 20260508202003 | 53 | 20 | 0.9 | 3.5 | 0.00 | 0.00 | 0.00 | 66 | 1026.9 |
| 20260508201003 | 53 | 168 | 1.7 | 6.1 | 0.00 | 0.00 | 0.00 | 66 | 1026.9 |
| 20260508200004 | 53 | 95 | 1.7 | 7.8 | 0.00 | 0.00 | 0.00 | 65 | 1026.8 |
| 20260508195003 | 53 | 94 | 0.9 | 2.6 | 0.00 | 0.00 | 0.00 | 65 | 1026.8 |
| 20260508194004 | 54 | 154 | 1.7 | 5.2 | 0.00 | 0.00 | 0.00 | 65 | 1026.9 |
| 20260508193003 | 54 | 119 | 0.9 | 6.1 | 0.00 | 0.00 | 0.00 | 65 | 1026.7 |
| 20260508192003 | 54 | 229 | 0.9 | 3.5 | 0.00 | 0.00 | 0.00 | 64 | 1026.6 |
| 20260508191003 | 54 | 142 | 1.7 | 6.1 | 0.00 | 0.00 | 0.00 | 64 | 1026.7 |
| 20260508190004 | 54 | 156 | 1.7 | 10.4 | 0.00 | 0.00 | 0.00 | 64 | 1026.7 |
| 20260508185004 | 54 | 117 | 0.9 | 3.5 | 0.00 | 0.00 | 0.00 | 64 | 1026.8 |
| 20260508184004 | 54 | 163 | 0.9 | 4.3 | 0.00 | 0.00 | 0.00 | 64 | 1026.8 |
| 20260508183004 | 54 | 236 | 0.9 | 3.5 | 0.00 | 0.00 | 0.00 | 63 | 1026.8 |
| 20260508182004 | 55 | 96 | 0.9 | 2.6 | 0.00 | 0.00 | 0.00 | 62 | 1026.7 |
| 20260508181025 | 55 | 175 | 0.9 | 5.2 | 0.00 | 0.00 | 0.00 | 62 | 1026.8 |
| 20260508180004 | 55 | 191 | 0.9 | 3.5 | 0.00 | 0.00 | 0.00 | 62 | 1026.6 |
| 20260508175004 | 55 | 167 | 0.9 | 3.5 | 0.00 | 0.00 | 0.00 | 61 | 1026.7 |
| 20260508174004 | 56 | 219 | 0.9 | 5.2 | 0.00 | 0.00 | 0.00 | 61 | 1026.8 |
| 20260508173004 | 56 | 140 | 0.9 | 5.2 | 0.00 | 0.00 | 0.00 | 61 | 1026.9 |
| 20260508172025 | 56 | 123 | 0.9 | 3.5 | 0.00 | 0.00 | 0.00 | 60 | 1027.0 |
| 20260508171004 | 56 | 54 | 0.9 | 7.0 | 0.00 | 0.00 | 0.00 | 60 | 1027.0 |
| 20260508170004 | 56 | 78 | 0.9 | 4.3 | 0.00 | 0.00 | 0.00 | 59 | 1026.9 |
| 20260508165004 | 56 | 88 | 0.9 | 4.3 | 0.00 | 0.00 | 0.00 | 59 | 1026.8 |
| 20260508164004 | 57 | 55 | 0.9 | 6.1 | 0.00 | 0.00 | 0.00 | 58 | 1026.7 |
| 20260508163025 | 57 | 36 | 0.9 | 5.2 | 0.00 | 0.00 | 0.00 | 58 | 1026.5 |
| 20260508162025 | 57 | 71 | 1.7 | 7.0 | 0.00 | 0.00 | 0.00 | 57 | 1026.5 |
| 20260508161004 | 57 | 111 | 1.7 | 7.0 | 0.00 | 0.00 | 0.00 | 57 | 1026.3 |
| 20260508160004 | 57 | 333 | 1.7 | 5.2 | 0.00 | 0.00 | 0.00 | 57 | 1026.3 |
| 20260508155003 | 58 | 22 | 1.7 | 6.1 | 0.00 | 0.00 | 0.00 | 56 | 1026.3 |
| 20260508154004 | 58 | 280 | 1.7 | 7.0 | 0.00 | 0.00 | 0.00 | 56 | 1026.3 |
| 20260508153003 | 58 | 140 | 1.7 | 5.2 | 0.00 | 0.00 | 0.00 | 55 | 1026.2 |
| 20260508152024 | 58 | 153 | 0.9 | 4.3 | 0.00 | 0.00 | 0.00 | 55 | 1026.3 |
| 20260508151004 | 58 | 201 | 1.7 | 5.2 | 0.00 | 0.00 | 0.00 | 55 | 1026.4 |
| 20260508150025 | 59 | 226 | 0.9 | 2.6 | 0.00 | 0.00 | 0.00 | 55 | 1026.3 |
| 20260508145024 | 59 | 246 | 0.9 | 2.6 | 0.00 | 0.00 | 0.00 | 55 | 1026.4 |
| 20260508144004 | 59 | 222 | 0.9 | 3.5 | 0.00 | 0.00 | 0.00 | 55 | 1026.5 |
| 20260508143004 | 59 | 174 | 1.7 | 6.1 | 0.00 | 0.00 | 0.00 | 55 | 1026.7 |
| 20260508142025 | 59 | 56 | 0.9 | 3.5 | 0.00 | 0.00 | 0.00 | 54 | 1026.7 |
| 20260508141004 | 59 | 58 | 0.9 | 3.5 | 0.00 | 0.00 | 0.00 | 55 | 1026.8 |
| 20260508140004 | 59 | 120 | 0.9 | 7.0 | 0.00 | 0.00 | 0.00 | 55 | 1026.8 |
| 20260508135004 | 59 | 156 | 0.9 | 5.2 | 0.00 | 0.00 | 0.00 | 55 | 1026.8 |
| 20260508134004 | 59 | 114 | 0.9 | 6.1 | 0.00 | 0.00 | 0.00 | 56 | 1026.7 |
| 20260508133004 | 60 | 128 | 0.9 | 2.6 | 0.00 | 0.00 | 0.00 | 56 | 1026.6 |
| 20260508132004 | 60 | 158 | 0.9 | 5.2 | 0.00 | 0.00 | 0.00 | 57 | 1026.6 |
| 20260508131003 | 60 | 75 | 1.7 | 3.5 | 0.00 | 0.00 | 0.00 | 57 | 1026.6 |
| 20260508130004 | 60 | 1 | 1.7 | 6.1 | 0.00 | 0.00 | 0.00 | 57 | 1026.5 |
| 20260508125003 | 60 | 80 | 0.9 | 6.1 | 0.00 | 0.00 | 0.00 | 57 | 1026.4 |
| 20260508124024 | 60 | 346 | 0.9 | 3.5 | 0.00 | 0.00 | 0.00 | 57 | 1026.4 |
| 20260508123003 | 60 | 358 | 0.9 | 3.5 | 0.00 | 0.00 | 0.00 | 57 | 1026.3 |
| 20260508122003 | 61 | 350 | 0.9 | 3.5 | 0.00 | 0.00 | 0.00 | 57 | 1026.4 |
| 20260508121003 | 61 | 9 | 1.7 | 4.3 | 0.00 | 0.00 | 0.00 | 57 | 1026.4 |
| 20260508120004 | 61 | 6 | 1.7 | 7.0 | 0.00 | 0.00 | 0.00 | 57 | 1026.4 |
| 20260508115024 | 61 | 351 | 1.7 | 6.1 | 0.00 | 0.00 | 0.00 | 57 | 1026.4 |
| 20260508114003 | 61 | 6 | 1.7 | 3.5 | 0.00 | 0.00 | 0.00 | 57 | 1026.5 |
| 20260508113004 | 61 | 5 | 1.7 | 5.2 | 0.00 | 0.00 | 0.00 | 57 | 1026.5 |
| 20260508112003 | 61 | 4 | 0.9 | 4.3 | 0.00 | 0.00 | 0.00 | 57 | 1026.4 |
| 20260508111003 | 62 | 345 | 0.9 | 2.6 | 0.00 | 0.00 | 0.00 | 57 | 1026.5 |
| 20260508110024 | 62 | 347 | 1.7 | 3.5 | 0.00 | 0.00 | 0.00 | 56 | 1026.5 |
| 20260508105003 | 62 | 347 | 1.7 | 3.5 | 0.00 | 0.00 | 0.00 | 56 | 1026.5 |
| 20260508104003 | 63 | 340 | 1.7 | 4.3 | 0.00 | 0.00 | 0.00 | 55 | 1026.4 |
| 20260508103004 | 63 | 343 | 0.9 | 2.6 | 0.00 | 0.00 | 0.00 | 54 | 1026.3 |
| 20260508102004 | 64 | 6 | 0.9 | 2.6 | 0.00 | 0.00 | 0.00 | 53 | 1026.3 |
| 20260508101004 | 64 | 346 | 0.9 | 1.7 | 0.00 | 0.00 | 0.00 | 53 | 1026.3 |
| 20260508100004 | 65 | 3 | 0.9 | 2.6 | 0.00 | 0.00 | 0.00 | 52 | 1026.3 |
| 20260508095025 | 65 | 14 | 0.9 | 5.2 | 0.00 | 0.00 | 0.00 | 51 | 1026.2 |
| 20260508094003 | 66 | 16 | 0.9 | 3.5 | 0.00 | 0.00 | 0.00 | 50 | 1026.2 |
| 20260508093004 | 67 | 34 | 0.9 | 3.5 | 0.00 | 0.00 | 0.00 | 49 | 1026.1 |
| 20260508092025 | 67 | 316 | 1.7 | 5.2 | 0.00 | 0.00 | 0.00 | 49 | 1026.0 |
| 20260508091025 | 68 | 60 | 1.7 | 6.1 | 0.00 | 0.00 | 0.00 | 48 | 1026.0 |
| 20260508090004 | 69 | 41 | 1.7 | 4.3 | 0.00 | 0.00 | 0.00 | 48 | 1025.9 |
| 20260508085025 | 69 | 32 | 1.7 | 6.1 | 0.00 | 0.00 | 0.00 | 47 | 1025.8 |
| 20260508084004 | 70 | 29 | 2.6 | 11.3 | 0.00 | 0.00 | 0.00 | 46 | 1025.8 |
| 20260508083004 | 70 | 39 | 2.6 | 9.6 | 0.00 | 0.00 | 0.00 | 46 | 1025.8 |
| 20260508082004 | 70 | 33 | 2.6 | 7.8 | 0.00 | 0.00 | 0.00 | 46 | 1025.8 |
| 20260508081004 | 71 | 154 | 2.6 | 13.9 | 0.00 | 0.00 | 0.00 | 46 | 1025.8 |
| 20260508080004 | 71 | 32 | 1.7 | 7.8 | 0.00 | 0.00 | 0.00 | 45 | 1025.8 |
| 20260508075004 | 71 | 82 | 3.5 | 7.8 | 0.00 | 0.00 | 0.00 | 45 | 1025.8 |
| 20260508074004 | 71 | 46 | 3.5 | 11.3 | 0.00 | 0.00 | 0.00 | 45 | 1025.7 |
| 20260508073004 | 72 | 54 | 1.7 | 7.8 | 0.00 | 0.00 | 0.00 | 45 | 1025.7 |
| 20260508072004 | 72 | 88 | 2.6 | 7.0 | 0.00 | 0.00 | 0.00 | 46 | 1025.8 |
| 20260508071004 | 72 | 41 | 2.6 | 7.8 | 0.00 | 0.00 | 0.00 | 45 | 1025.8 |
| 20260508070004 | 72 | 52 | 2.6 | 9.6 | 0.00 | 0.00 | 0.00 | 45 | 1025.8 |
| 20260508065004 | 72 | 35 | 2.6 | 5.2 | 0.00 | 0.00 | 0.00 | 45 | 1025.9 |
| 20260508064004 | 72 | 65 | 3.5 | 13.0 | 0.00 | 0.00 | 0.00 | 47 | 1025.9 |
| 20260508063004 | 72 | 32 | 2.6 | 8.7 | 0.00 | 0.00 | 0.00 | 46 | 1026.0 |
| 20260508062025 | 71 | 35 | 4.3 | 13.9 | 0.00 | 0.00 | 0.00 | 45 | 1026.1 |
| 20260508061004 | 71 | 16 | 2.6 | 8.7 | 0.00 | 0.00 | 0.00 | 48 | 1026.1 |
| 20260508060004 | 71 | 109 | 2.6 | 7.0 | 0.00 | 0.00 | 0.00 | 48 | 1026.2 |
| 20260508055004 | 71 | 46 | 3.5 | 10.4 | 0.00 | 0.00 | 0.00 | 48 | 1026.3 |
| 20260508054004 | 70 | 92 | 3.5 | 8.7 | 0.00 | 0.00 | 0.00 | 50 | 1026.4 |
| 20260508053004 | 70 | 64 | 3.5 | 11.3 | 0.00 | 0.00 | 0.00 | 50 | 1026.5 |
| 20260508052004 | 70 | 123 | 2.6 | 9.6 | 0.00 | 0.00 | 0.00 | 50 | 1026.7 |
| 20260508051003 | 70 | 41 | 3.5 | 8.7 | 0.00 | 0.00 | 0.00 | 52 | 1026.8 |
| 20260508050004 | 69 | 29 | 3.5 | 13.9 | 0.00 | 0.00 | 0.00 | 51 | 1026.9 |
| 20260508045003 | 69 | 33 | 2.6 | 8.7 | 0.00 | 0.00 | 0.00 | 53 | 1027.2 |
| 20260508044003 | 69 | 11 | 3.5 | 11.3 | 0.00 | 0.00 | 0.00 | 56 | 1027.2 |
| 20260508043003 | 68 | 33 | 3.5 | 16.5 | 0.00 | 0.00 | 0.00 | 55 | 1027.5 |
| 20260508042003 | 68 | 21 | 4.3 | 11.3 | 0.00 | 0.00 | 0.00 | 57 | 1027.8 |
| 20260508041003 | 68 | 14 | 5.2 | 13.0 | 0.00 | 0.00 | 0.00 | 56 | 1028.0 |
| 20260508040004 | 68 | 12 | 4.3 | 15.6 | 0.00 | 0.00 | 0.00 | 56 | 1028.3 |
| 20260508035003 | 67 | 25 | 4.3 | 11.3 | 0.00 | 0.00 | 0.00 | 57 | 1028.4 |
| 20260508034024 | 67 | 16 | 4.3 | 10.4 | 0.00 | 0.00 | 0.00 | 56 | 1028.7 |
| 20260508033003 | 67 | 14 | 4.3 | 13.0 | 0.00 | 0.00 | 0.00 | 57 | 1028.8 |
| 20260508032004 | 66 | 29 | 3.5 | 8.7 | 0.00 | 0.00 | 0.00 | 58 | 1028.9 |
| 20260508031025 | 66 | 34 | 4.3 | 13.0 | 0.00 | 0.00 | 0.00 | 59 | 1029.1 |
| 20260508030024 | 66 | 24 | 5.2 | 15.6 | 0.00 | 0.00 | 0.00 | 59 | 1029.2 |
| 20260508025003 | 65 | 38 | 5.2 | 18.2 | 0.00 | 0.00 | 0.00 | 59 | 1029.3 |